K7KWR Weather Reports


Display with metric or nautical units.
time (UTC)temp
F
wind
direction
speed
MPH
gust
MPH
rain 1hr
in
rain 24hr
in
rain mn
in
humidity
%
barometer
mb
20211026152453 51 335 2.0 0.0 0.19 0.00 0.00
20211026150953 53 345 6.0 0.0 0.19 0.00 0.00
20211026145635 54 304 4.0 0.0 0.19 0.00 0.00
20211026145455 54 304 4.0 0.0 0.19 0.00 0.00
20211026144108 52 309 2.0 0.0 0.19 0.00 0.08
20211026143952 52 309 2.0 0.0 0.19 0.00 0.08
20211026133953 45 336 5.0 0.0 0.19 0.00 0.08
20211026131143 46 315 1.0 0.0 0.19 0.00 0.08
20211026130952 46 315 1.0 0.0 0.19 0.00 0.08
20211026122452 45 335 0.0 0.0 0.19 0.00 0.08
20211026121203 45 335 0.0 0.0 0.19 0.00 0.08
20211026120952 45 335 0.0 0.0 0.19 0.00 0.08
20211026115452 47 335 0.0 0.0 0.19 0.00 0.08
20211026114138 50 312 3.0 0.0 0.19 0.00 0.08
20211026113952 50 312 3.0 0.0 0.19 0.00 0.08
20211026112810 49 312 1.0 0.0 0.19 0.00 0.08
20211026112452 49 312 1.0 0.0 0.19 0.00 0.08
20211026111212 50 276 3.0 0.0 0.19 0.00 0.08
20211026110952 50 276 3.0 0.0 0.19 0.00 0.08
20211026105750 51 13 2.0 0.0 0.19 0.00 0.08
20211026105452 51 13 2.0 0.0 0.19 0.00 0.08
20211026103952 52 318 0.0 0.0 0.19 0.00 0.08
20211026102726 52 315 3.0 0.0 0.19 0.00 0.08
20211026102453 52 315 3.0 0.0 0.19 0.00 0.08
20211026101133 53 326 12.0 0.0 0.19 0.00 0.08
20211026100951 53 326 12.0 0.0 0.19 0.00 0.08
20211026095659 53 318 10.0 0.0 0.19 0.00 0.08
20211026095452 53 318 10.0 0.0 0.19 0.00 0.08
20211026090951 54 283 10.0 0.0 0.19 0.00 0.08
20211026085452 54 294 5.0 0.0 0.19 0.00 0.08
20211026083951 54 309 2.0 0.0 0.19 0.00 0.08
20211026082452 55 304 2.0 0.0 0.19 0.00 0.08
20211026072846 61 269 12.0 0.0 0.11 0.00 0.00
20211026072453 61 269 12.0 0.0 0.11 0.00 0.00
20211026071251 61 201 10.0 0.0 0.11 0.00 0.00
20211026070951 61 201 10.0 0.0 0.11 0.00 0.00
20211026065452 61 183 5.0 0.0 0.11 0.00 0.00
20211026063951 62 181 6.0 0.0 0.11 0.00 0.00
20211026062452 62 184 6.0 0.0 0.11 0.00 0.00
20211026060951 62 194 5.0 0.0 0.11 0.00 0.00
20211026055452 63 190 5.0 0.0 0.11 0.00 0.00
20211026053951 63 193 1.0 0.0 0.11 0.00 0.00
20211026050951 64 183 2.0 0.0 0.11 0.00 0.00
20211026045452 65 225 4.0 0.0 0.11 0.00 0.00
20211026043951 65 188 1.0 0.0 0.11 0.00 0.00
20211026042452 65 176 0.0 0.0 0.11 0.00 0.00
20211026035452 64 193 0.0 0.0 0.11 0.00 0.00
20211026033951 65 165 1.0 0.0 0.11 0.00 0.00
20211026030951 65 170 2.0 0.0 0.11 0.00 0.00
20211026025452 67 201 0.0 0.0 0.11 0.00 0.00
20211026023951 66 204 5.0 0.0 0.11 0.00 0.00
20211026022452 66 153 0.0 0.0 0.11 0.00 0.00
20211026013951 66 224 0.0 0.0 0.11 0.00 0.00
20211026012536 67 233 0.0 0.0 0.11 0.00 0.00
20211026012452 67 233 0.0 0.0 0.11 0.00 0.00
20211026011328 67 204 8.0 0.0 0.11 0.00 0.00
20211026010951 67 204 8.0 0.0 0.11 0.00 0.00
20211026010133 68 222 5.0 0.0 0.11 0.00 0.00
20211026005451 68 222 5.0 0.0 0.11 0.00 0.00
20211026005128 68 160 2.0 0.0 0.11 0.00 0.00
20211026003951 68 160 2.0 0.0 0.11 0.00 0.00
20211026002531 69 204 3.0 0.0 0.11 0.00 0.00
20211026002451 69 204 3.0 0.0 0.11 0.00 0.00
20211026002327 70 224 8.0 0.0 0.11 0.00 0.00
20211026000951 70 224 8.0 0.0 0.11 0.00 0.00
20211026000101 70 229 9.0 0.0 0.11 0.00 0.00
20211025235451 70 229 9.0 0.0 0.11 0.00 0.00
20211025234128 72 233 6.0 0.0 0.11 0.00 0.00
20211025233951 72 233 6.0 0.0 0.11 0.00 0.00
20211025232451 72 193 8.0 0.0 0.11 0.00 0.00
20211025224357 74 246 8.0 0.0 0.11 0.00 0.00
20211025223951 74 246 8.0 0.0 0.11 0.00 0.00
20211025222451 74 195 8.0 0.0 0.11 0.00 0.00
20211025215825 75 231 4.0 0.0 0.11 0.00 0.00
20211025215451 75 231 4.0 0.0 0.11 0.00 0.00
20211025214045 75 245 7.0 0.0 0.11 0.00 0.00
20211025213950 75 245 7.0 0.0 0.11 0.00 0.00
20211025212815 76 240 5.0 0.0 0.11 0.00 0.00
20211025212451 76 240 5.0 0.0 0.11 0.00 0.00
20211025210950 75 250 7.0 0.0 0.11 0.00 0.00
20211025205451 75 215 5.0 0.0 0.11 0.00 0.00
20211025203950 75 246 8.0 0.0 0.11 0.00 0.00
20211025202703 75 262 7.0 0.0 0.11 0.00 0.00
20211025202451 75 262 7.0 0.0 0.11 0.00 0.00
20211025202342 76 238 5.0 0.0 0.11 0.00 0.00
20211025200950 76 238 5.0 0.0 0.11 0.00 0.00
20211025193950 73 146 0.0 0.0 0.11 0.00 0.00
20211025192614 74 246 5.0 0.0 0.11 0.00 0.00
20211025192451 74 246 5.0 0.0 0.11 0.00 0.00
20211025191116 75 177 6.0 0.0 0.11 0.00 0.00
20211025191028 75 177 6.0 0.0 0.11 0.00 0.00
20211025190950 75 177 6.0 0.0 0.11 0.00 0.00
20211025182703 76 228 10.0 0.0 0.11 0.00 0.00
20211025182524 76 228 10.0 0.0 0.11 0.00 0.00
20211025182451 76 228 10.0 0.0 0.11 0.00 0.00
20211025180951 74 177 7.0 0.0 0.11 0.00 0.00
20211025171625 76 186 6.0 0.0 0.11 0.00 0.00
20211025171127 76 186 6.0 0.0 0.11 0.00 0.00
20211025170950 76 186 6.0 0.0 0.11 0.00 0.00
20211025165805 75 156 5.0 0.0 0.11 0.00 0.00
20211025165544 75 156 5.0 0.0 0.11 0.00 0.00
20211025165451 75 156 5.0 0.0 0.11 0.00 0.00
20211025162600 76 162 0.0 0.0 0.11 0.00 0.00
20211025162451 76 162 0.0 0.0 0.11 0.00 0.00
20211025155451 81 110 0.0 0.0 0.11 0.00 0.00